Domov               UVHVVR             MKGP            O straneh              
ZDRAVSTVENO VARSTVO RASTLIN
  MREŽA AGROMET. POSTAJ
 ► PROGNOSTIČNA OBVESTILA
AGROMETEOROLOŠKI PODATKI -
ARSO
OBVLADOVANJE TVEGANJ ZARADI
NEUGODNIH VREMENSKIH RAZMER
  ► NARAVNE NESREČE
  ► SUŠA/MOČA
  ► NAMAKANJE
  ► ŽLED (gozdarstvo)
KARTOGRAFSKI PRIKAZI
SPLETNE POVEZAVE
PROJEKTI IN PUBLIKACIJE

AGROMETEOROLOŠKA MREŽA: VREMENSKE POSTAJE IN FENOLOŠKA OPAZOVANJA

Pregled podatkov za lokacijo Višnjevik, meteorološka postaja 857246

Pregled senzorjev na lokaciji

ID Ime Zadnja
vrednost
Datum
zadnje
spremembe
Tip
senzorja
3902 Temperatura 2 m (°C) 5 °C 18.1.2018 20:15 50YA
3903 Relativna vlaga 2 m (% RH) 70,53 % RH 18.1.2018 20:15 50YA
3904 Omočenost lista (U) 0 U 18.1.2018 20:15 A730WET
3906 Padavine (mm) 0 mm 18.1.2018 20:15 Rain-O-Matic

Pregled podatkov zadnjih 24 ur

Zap.
št.
Datum in čas Višnjevik
Omočenost
lista
Padavine Relativna
vlaga
2
m
Temperatura
2
m
0 18.1.2018 20:00 0 0 72,31 4,85
1 18.1.2018 19:30 0 0 73,91 4,89
2 18.1.2018 19:00 0 0 74,21 4,88
3 18.1.2018 18:30 0 0 71,26 5,34
4 18.1.2018 18:00 0 0 68,73 5,95
5 18.1.2018 17:30 0 0 69,01 5,67
6 18.1.2018 17:00 0 0 64,23 6,77
7 18.1.2018 16:30 0 0 61,88 7,55
8 18.1.2018 16:00 0 0 59,2 8,23
9 18.1.2018 15:30 0 0 52,23 8,54
10 18.1.2018 15:00 0 0 50,87 8,72
11 18.1.2018 14:30 0 0 45,26 8,53
12 18.1.2018 14:00 0 0 48,77 8,49
13 18.1.2018 13:30 0 0 59,7 8,13
14 18.1.2018 13:00 0 0 60,97 7,93
15 18.1.2018 12:30 0 0 59,93 8,14
16 18.1.2018 12:00 0 0 55,47 7,97
17 18.1.2018 11:30 0 0 52,72 7,96
18 18.1.2018 11:00 0 0 54,42 7,09
19 18.1.2018 10:30 0 0 55,16 6,16
20 18.1.2018 10:00 0 0 56,97 5,11
21 18.1.2018 09:30 0 0 58,87 3,9
22 18.1.2018 09:00 0 0 61,58 2,42
23 18.1.2018 08:30 0 0 62,99 1,92
24 18.1.2018 08:00 0 0 60,49 1,76
25 18.1.2018 07:30 0 0 54,12 2,14
26 18.1.2018 07:00 0 0 58,67 1,09
27 18.1.2018 06:30 0 0 56,07 1,44
28 18.1.2018 06:00 0 0 54,79 1,71
29 18.1.2018 05:30 0 0 50,88 2,48
30 18.1.2018 05:00 0 0 52,52 2,07
31 18.1.2018 04:30 0 0 48,94 2,53
32 18.1.2018 04:00 0 0 45,77 2,96
33 18.1.2018 03:30 0 0 46,53 2,73
34 18.1.2018 03:00 0 0 46,67 2,67
35 18.1.2018 02:30 0 0 45,01 2,94
36 18.1.2018 02:00 0 0 45,46 2,89
37 18.1.2018 01:30 0 0 45,1 2,77
38 18.1.2018 01:00 0 0 44,4 2,65
39 18.1.2018 00:30 0 0 43,13 2,97
40 18.1.2018 00:00 0 0 40,02 3,38
41 17.1.2018 23:30 0 0 39,33 3,71
42 17.1.2018 23:00 0 0 41,61 3,22
43 17.1.2018 22:30 0 0 40,19 3,66
44 17.1.2018 22:00 0 0 48,01 2,82
45 17.1.2018 21:30 0 0 45,77 3,63
46 17.1.2018 21:00 0 0 45,68 3,23
47 17.1.2018 20:30 0 0 38,38 4,47
© 2011 Ministrstvo za kmetijstvo, gozdarstvo in prehrano. Vse pravice pridržane.